Carlisle Airport, United Kingdom

5:54 AM GMT on December 18, 2017 (GMT +0000)
Carlisle

Weather History for EGNC - October, 2012

Change the Weather History Date:

Friday, October 26, 2012

  Actual Average Record
Temperature  
Mean Temperature 39 °F -  
Max Temperature 41 °F 48 °F 59 °F (2005)
Min Temperature 35 °F 42 °F 32 °F (2003)
Degree Days  
Heating Degree Days 26    
Moisture  
Dew Point 30 °F    
Average Humidity 70    
Maximum Humidity 87    
Minimum Humidity 57    
Precipitation  
Precipitation 0.00 in - - ()
Sea Level Pressure  
Sea Level Pressure 30.09 in    
Wind  
Wind Speed 4 mph ()    
Max Wind Speed 9 mph    
Max Gust Speed -    
Visibility 6.2 miles    
Events      
Averages and records for this station are not official NWS values.
T = Trace of Precipitation, MM = Missing Value Source: Averaged Metar Reports

Daily Weather History Graph

Daily Weather History Graph

Search for Another Location

Airport or City:

Trip Planner

Search our weather history database for the weather conditions in past years. The results will help you decide how hot, cold, wet, or windy it might be!

Date:

Astronomy

Oct. 26, 2012 Rise Set
Actual Time 8:03 AM BST 5:46 PM BST
Civil Twilight 7:26 AM BST 6:24 PM BST
Nautical Twilight 6:43 AM BST 7:06 PM BST
Astronomical Twilight 6:01 AM BST 7:48 PM BST
Moon 4:17 PM BST (10/26) 4:18 AM BST (10/26)
Length of Visible Light 10h 58m
Length of Day
9h 43m
Waxing Gibbous, 89% of the Moon is Illuminated
Oct 26
Waxing Gibbous
Oct 29
Full
Nov 7
Last Quarter
Nov 13
New
Nov 20
First Quarter

Hourly Weather History & Observations

Time (BST) Temp. Windchill Dew Point Humidity Pressure Visibility Wind Dir Wind Speed Gust Speed Precip Events Conditions
8:50 AM 37.4 °F - 32.0 °F 81% 30.15 in 6.2 mi ENE 1.2 mph - N/A   Partly Cloudy
9:20 AM 37.4 °F 32.8 °F 33.8 °F 87% 30.12 in 6.2 mi NNE 5.8 mph - N/A   Partly Cloudy
9:50 AM 37.4 °F 33.8 °F 33.8 °F 87% 30.12 in 6.2 mi NNE 4.6 mph - N/A   Partly Cloudy
10:20 AM 37.4 °F 33.8 °F 33.8 °F 87% 30.12 in 6.2 mi NNE 4.6 mph - N/A   Partly Cloudy
10:50 AM 39.2 °F - 33.8 °F 81% 30.12 in 6.2 mi NNE 2.3 mph - N/A   Mostly Cloudy
11:20 AM 39.2 °F 35.9 °F 33.8 °F 81% 30.12 in 6.2 mi NNE 4.6 mph - N/A   Mostly Cloudy
11:50 AM 39.2 °F 34.2 °F 32.0 °F 75% 30.12 in 6.2 mi NE 6.9 mph - N/A   Mostly Cloudy
12:20 PM 39.2 °F 33.6 °F 32.0 °F 75% 30.09 in 6.2 mi NNE 8.1 mph - N/A   Mostly Cloudy
12:50 PM 41.0 °F 38.0 °F 32.0 °F 70% 30.09 in 6.2 mi NNE 4.6 mph - N/A   Mostly Cloudy
1:20 PM 41.0 °F 39.0 °F 30.2 °F 65% 30.09 in 6.2 mi North 3.5 mph - N/A   Mostly Cloudy
1:50 PM 41.0 °F 38.0 °F 30.2 °F 65% 30.09 in 6.2 mi North 4.6 mph - N/A   Scattered Clouds
2:20 PM 41.0 °F 35.8 °F 26.6 °F 57% 30.09 in 6.2 mi North 8.1 mph - N/A   Scattered Clouds
2:50 PM 41.0 °F 36.4 °F 26.6 °F 57% 30.06 in 6.2 mi North 6.9 mph - N/A   Scattered Clouds
3:20 PM 41.0 °F 37.1 °F 26.6 °F 57% 30.06 in 6.2 mi North 5.8 mph - N/A   Scattered Clouds
3:50 PM 41.0 °F 35.2 °F 26.6 °F 57% 30.06 in 6.2 mi North 9.2 mph - N/A   Scattered Clouds
4:20 PM 41.0 °F 35.8 °F 26.6 °F 57% 30.06 in 6.2 mi NNW 8.1 mph - N/A   Partly Cloudy
4:50 PM 39.2 °F 37.0 °F 28.4 °F 65% 30.04 in 6.2 mi North 3.5 mph - N/A   Partly Cloudy
5:20 PM 39.2 °F - 28.4 °F 65% 30.04 in 6.2 mi North 2.3 mph - N/A   Partly Cloudy
5:50 PM 35.6 °F 32.8 °F 26.6 °F 70% 30.04 in 6.2 mi NNW 3.5 mph - N/A   Partly Cloudy